Date String (YYYY-MM-DD hh:mm:ss) UTC,Instrument flags,Ambient pressure (hPa),Sample flow (lpm),Bypass flow (lpm),Sample temperature (°C),Ambient temperature (°C),ASC tube jacket temperature (°C),LED temperature (°C),Box temperature (°C),Sample RH (%),Span deviation,Mass concentration (μg/m³),Mass concentration (μg/m³),Mass concentration (μg/m³)
DateTimeUTC,F1_M11,P_M11,Q1_M11,Q2_M11,T1_M11,T2_M11,T3_M11,T4_M11,T5_M11,U1_M11,ZSPAN_M11,X0_M11,X2_M11,X1_M11
2021-08-31 08:00:00,,0823.4,5.00,0.00,29.7,28.6,00.0,38.7,31.5,12.1,0002.5,0040.45,0030.27,0028.70
2021-08-31 08:01:00,,0823.3,5.00,0.00,29.7,28.6,00.0,38.7,31.5,12.1,0002.2,0040.31,0030.25,0028.74
2021-08-31 08:02:00,,0823.3,5.01,0.00,29.7,28.7,00.0,38.7,31.5,12.1,0002.3,0040.38,0030.30,0028.81
2021-08-31 08:03:00,,0823.4,5.00,0.00,29.8,28.8,00.0,38.7,31.6,12.1,0002.3,0040.99,0030.41,0028.90
2021-08-31 08:04:00,,0823.4,5.00,0.00,29.8,28.8,00.0,38.8,31.6,12.0,0002.5,0039.72,0030.49,0028.99
2021-08-31 08:05:00,,0823.4,5.01,0.00,29.8,28.9,00.0,38.8,31.7,12.0,0002.4,0039.50,0030.56,0029.03
2021-08-31 08:06:00,,0823.3,5.01,0.00,29.9,28.9,00.0,38.8,31.7,12.0,0002.5,0039.53,0030.61,0029.10
2021-08-31 08:07:00,,0823.3,5.00,0.00,29.9,28.9,00.0,38.8,31.7,12.0,0002.7,0039.43,0030.57,0029.15
2021-08-31 08:08:00,,0823.3,4.99,0.00,29.9,28.1,00.0,38.8,31.5,12.0,0002.6,0040.61,0030.58,0029.16
2021-08-31 08:09:00,,0823.3,5.00,0.00,29.7,26.3,00.0,38.8,30.9,12.2,0002.6,0040.93,0030.61,0029.19
2021-08-31 08:10:00,,0823.3,5.01,0.00,29.6,26.2,00.0,38.8,30.9,12.7,0002.9,0041.61,0030.75,0029.25
2021-08-31 08:11:00,,0823.3,5.00,0.00,29.5,26.5,00.0,38.8,30.9,12.7,0003.2,0042.16,0030.81,0029.33
2021-08-31 08:12:00,,0823.2,5.00,0.00,29.5,27.0,00.0,38.7,31.0,12.7,0003.3,0043.04,0030.90,0029.39
2021-08-31 08:13:00,,0823.3,5.01,0.00,29.5,27.3,00.0,38.7,31.1,12.5,0003.4,0043.38,0030.97,0029.41
2021-08-31 08:14:00,,0823.2,4.98,0.00,29.5,27.6,00.0,38.7,31.1,12.6,0003.4,0043.29,0031.01,0029.39
2021-08-31 08:15:00,,0823.2,5.01,0.00,29.5,27.9,00.0,38.7,31.2,12.5,0003.3,0043.35,0031.05,0029.40
2021-08-31 08:16:00,,0823.3,5.01,0.00,29.5,28.0,00.0,38.7,31.2,12.3,0003.3,0044.21,0031.11,0029.42
2021-08-31 08:17:00,,0823.3,5.00,0.00,29.5,28.2,00.0,38.7,31.3,12.3,0003.1,0045.21,0031.13,0029.39
2021-08-31 08:18:00,,0823.2,5.00,0.00,29.6,28.3,00.0,38.7,31.4,12.1,0003.1,0045.69,0030.98,0029.22
2021-08-31 08:19:00,,0823.3,4.99,0.00,29.6,28.4,00.0,38.7,31.4,12.2,0003.2,0044.24,0030.85,0029.08
2021-08-31 08:20:00,,0823.2,5.02,0.00,29.6,28.5,00.0,38.7,31.4,12.1,0003.2,0044.74,0030.67,0028.94
2021-08-31 08:21:00,,0823.3,5.00,0.00,29.7,28.6,00.0,38.7,31.4,12.1,0003.1,0044.21,0030.41,0028.71
2021-08-31 08:22:00,,0823.3,4.99,0.00,29.7,28.7,00.0,38.7,31.5,12.0,0003.0,0043.18,0030.05,0028.40
2021-08-31 08:23:00,,0823.3,4.99,0.00,29.7,28.7,00.0,38.7,31.5,11.8,0002.9,0041.95,0029.64,0028.02
2021-08-31 08:24:00,,0823.2,5.00,0.00,29.8,28.8,00.0,38.8,31.6,11.8,0002.7,0041.08,0029.08,0027.54
2021-08-31 08:25:00,,0823.2,5.01,0.00,29.8,28.8,00.0,38.8,31.6,11.8,0002.7,0040.04,0028.47,0027.04
2021-08-31 08:26:00,,0823.2,4.99,0.00,29.8,28.9,00.0,38.8,31.6,11.9,0002.6,0039.04,0027.92,0026.51
2021-08-31 08:27:00,,0823.2,5.00,0.00,29.8,28.9,00.0,38.8,31.7,11.8,0002.4,0037.96,0027.32,0025.95
2021-08-31 08:28:00,,0823.2,4.99,0.00,29.9,29.0,00.0,38.8,31.7,11.7,0002.4,0036.40,0026.63,0025.40
2021-08-31 08:29:00,,0823.2,5.01,0.00,29.9,29.0,00.0,38.9,31.7,11.7,0002.1,0034.78,0026.15,0024.98
2021-08-31 08:30:00,,0823.2,5.00,0.00,29.9,27.9,00.0,38.9,31.4,11.6,0001.9,0034.03,0025.72,0024.57
2021-08-31 08:31:00,,0823.2,4.99,0.00,29.7,26.3,00.0,38.8,31.0,11.6,0002.0,0032.58,0025.24,0024.12
2021-08-31 08:32:00,,0823.3,5.01,0.00,29.6,26.3,00.0,38.8,31.0,11.7,0001.8,0031.27,0024.72,0023.70
2021-08-31 08:33:00,,0823.2,5.00,0.00,29.5,26.7,00.0,38.8,31.1,11.7,0001.7,0030.79,0024.33,0023.37
2021-08-31 08:34:00,,0823.3,5.00,0.00,29.5,27.1,00.0,38.7,31.1,11.9,0001.5,0030.71,0024.16,0023.23
2021-08-31 08:35:00,,0823.3,4.99,0.00,29.5,27.4,00.0,38.7,31.1,11.8,0001.9,0030.35,0024.17,0023.27
2021-08-31 08:36:00,,0823.2,5.01,0.00,29.5,27.7,00.0,38.7,31.2,11.8,0002.0,0030.21,0024.23,0023.29
2021-08-31 08:37:00,,0823.3,5.00,0.00,29.5,27.9,00.0,38.7,31.2,11.8,0002.2,0030.34,0024.35,0023.40
2021-08-31 08:38:00,,0823.3,4.99,0.00,29.6,28.1,00.0,38.7,31.3,11.8,0002.3,0030.45,0024.50,0023.59
2021-08-31 08:39:00,,0823.3,5.00,0.00,29.6,28.2,00.0,38.7,31.3,11.8,0002.6,0030.88,0024.73,0023.78
2021-08-31 08:40:00,,0823.3,5.00,0.00,29.6,28.3,00.0,38.7,31.4,11.7,0002.9,0030.86,0024.84,0023.88
2021-08-31 08:41:00,,0823.3,4.99,0.00,29.6,28.4,00.0,38.7,31.4,11.5,0003.0,0031.11,0024.88,0023.96
2021-08-31 08:42:00,,0823.3,5.01,0.00,29.7,28.5,00.0,38.7,31.4,11.5,0003.1,0031.60,0024.96,0024.01
2021-08-31 08:43:00,,0823.2,4.99,0.00,29.7,28.6,00.0,38.7,31.5,11.5,0003.3,0031.79,0025.03,0024.04
2021-08-31 08:44:00,,0823.3,5.01,0.00,29.7,28.6,00.0,38.7,31.5,11.3,0003.4,0031.65,0024.99,0023.99
2021-08-31 08:45:00,,0823.3,4.99,0.00,29.8,28.7,00.0,38.8,31.5,11.3,0003.6,0031.38,0024.90,0023.88
2021-08-31 08:46:00,,0823.3,5.01,0.00,29.8,28.8,00.0,38.8,31.6,11.4,0003.6,0031.55,0024.79,0023.74
2021-08-31 08:47:00,,0823.3,4.98,0.00,29.8,28.8,00.0,38.8,31.6,11.4,0003.4,0031.53,0024.76,0023.72
2021-08-31 08:48:00,,0823.3,5.01,0.00,29.8,28.8,00.0,38.8,31.6,11.3,0003.3,0031.70,0024.62,0023.60
2021-08-31 08:49:00,,0823.3,5.00,0.00,29.9,28.9,00.0,38.8,31.6,11.3,0003.3,0031.06,0024.34,0023.32
2021-08-31 08:50:00,,0823.3,4.99,0.00,29.9,28.9,00.0,38.9,31.7,11.2,0003.3,0030.30,0024.02,0023.03
2021-08-31 08:51:00,,0823.3,5.00,0.00,29.9,29.0,00.0,38.9,31.7,11.2,0003.2,0030.38,0023.77,0022.74
2021-08-31 08:52:00,,0823.3,5.01,0.00,29.9,29.0,00.0,38.9,31.8,11.2,0003.2,0030.16,0023.51,0022.51
2021-08-31 08:53:00,,0823.2,4.99,0.00,29.9,28.7,00.0,38.9,31.7,11.2,0003.1,0029.81,0023.23,0022.30
2021-08-31 08:54:00,,0823.3,5.01,0.00,29.8,26.8,00.0,38.9,31.2,11.3,0002.9,0029.48,0022.99,0022.11
2021-08-31 08:55:00,,0823.3,4.98,0.00,29.7,26.2,00.0,38.9,31.0,11.4,0002.9,0029.31,0022.82,0021.95
2021-08-31 08:56:00,,0823.2,5.02,0.00,29.6,26.5,00.0,38.8,31.1,11.4,0002.8,0029.27,0022.65,0021.76
2021-08-31 08:57:00,,0823.2,4.99,0.00,29.6,26.9,00.0,38.8,31.1,11.4,0002.7,0028.76,0022.44,0021.57
2021-08-31 08:58:00,,0823.2,5.01,0.00,29.5,27.3,00.0,38.8,31.1,11.5,0002.8,0028.29,0022.12,0021.30
2021-08-31 08:59:00,,0823.2,5.00,0.00,29.5,27.6,00.0,38.7,31.2,11.5,0002.9,0027.49,0021.83,0021.05
